When you browse on this site, cookies collect data to enhance your experience and personalize the content and advertising you see.
Visit our Privacy Policy to learn more. By continuing to use the site, you agree to this use of cookies and data.
  • In Austria
  • List of Countries
  • For 7 days
  • Water Temperature
  • Weather Map
  • News
  • Weather Widgets
  • user-avatar
    Login

    Hourly Weather Andon

    Today, 9 April, Thursday

    Time Temperature Precipitation Wind Pressure Humidity
    00:00 +4°C° 0 mm 0 mps 752 mmHg 62%
    01:00 +3°C° 0 mm 0 mps 752 mmHg 63%
    02:00 +3°C° 0 mm 0 mps 752 mmHg 64%
    03:00 +2°C° 0 mm 0 mps 752 mmHg 65%
    04:00 +2°C° 0 mm 0 mps 752 mmHg 66%
    05:00 +2°C° 0 mm 0 mps 752 mmHg 67%
    06:00 +1°C° 0 mm 0 mps 752 mmHg 68%
    07:00 +5°C° 0 mm 1 mps 752 mmHg 60%
    08:00 +7°C° 0 mm 1 mps 753 mmHg 51%
    09:00 +9°C° 0 mm 2 mps 753 mmHg 44%
    10:00 +10°C° 0 mm 2 mps 753 mmHg 39%
    11:00 +12°C° 0 mm 3 mps 753 mmHg 34%
    12:00 +13°C° 0 mm 4 mps 752 mmHg 29%
    13:00 +14°C° 0 mm 4 mps 752 mmHg 28%
    14:00 +14°C° 0 mm 4 mps 752 mmHg 27%
    15:00 +15°C° 0 mm 4 mps 752 mmHg 26%
    16:00 +14°C° 0 mm 3 mps 752 mmHg 29%
    17:00 +13°C° 0 mm 3 mps 753 mmHg 32%
    18:00 +14°C° 0 mm 2 mps 753 mmHg 35%
    19:00 +12°C° 0 mm 2 mps 753 mmHg 46%
    20:00 +9°C° 0 mm 2 mps 754 mmHg 58%
    21:00 +7°C° 0 mm 2 mps 755 mmHg 70%
    22:00 +6°C° 0 mm 2 mps 755 mmHg 74%
    23:00 +7°C° 0 mm 1 mps 755 mmHg 79%

    Tomorrow, 10 April, Friday

    Time Temperature Precipitation Wind Pressure Humidity
    00:00 +6°C° 0 mm 1 mps 756 mmHg 83%
    01:00 +6°C° 0 mm 1 mps 756 mmHg 84%
    02:00 +5°C° 0 mm 1 mps 756 mmHg 85%
    03:00 +4°C° 0 mm 0 mps 756 mmHg 86%
    04:00 +4°C° 0 mm 0 mps 756 mmHg 87%
    05:00 +5°C° 0 mm 1 mps 756 mmHg 87%
    06:00 +4°C° 0 mm 1 mps 756 mmHg 88%
    07:00 +6°C° 0 mm 0 mps 756 mmHg 76%
    08:00 +8°C° 0 mm 0 mps 756 mmHg 64%
    09:00 +11°C° 0 mm 0 mps 756 mmHg 52%
    10:00 +12°C° 0 mm 0 mps 756 mmHg 48%
    11:00 +14°C° 0 mm 1 mps 756 mmHg 44%
    12:00 +15°C° 0 mm 1 mps 756 mmHg 40%
    13:00 +15°C° 0 mm 1 mps 755 mmHg 40%
    14:00 +15°C° 0 mm 1 mps 755 mmHg 40%
    15:00 +15°C° 0 mm 1 mps 754 mmHg 40%
    16:00 +14°C° 0 mm 2 mps 754 mmHg 43%
    17:00 +14°C° 0 mm 2 mps 754 mmHg 46%
    18:00 +13°C° 0 mm 2 mps 754 mmHg 49%
    19:00 +12°C° 0.1 mm 2 mps 755 mmHg 54%
    20:00 +10°C° 0.1 mm 2 mps 755 mmHg 60%
    21:00 +9°C° 0.1 mm 2 mps 756 mmHg 65%
    22:00 +9°C° 0 mm 1 mps 755 mmHg 68%
    23:00 +9°C° 0 mm 1 mps 755 mmHg 72%

    Day after tomorrow, 11 April, Saturday

    Time Temperature Precipitation Wind Pressure Humidity
    00:00 +8°C° 0 mm 1 mps 755 mmHg 75%
    01:00 +6°C° 0 mm 0 mps 755 mmHg 79%
    02:00 +6°C° 0 mm 0 mps 754 mmHg 83%
    03:00 +5°C° 0 mm 0 mps 754 mmHg 87%
    04:00 +4°C° 0 mm 0 mps 753 mmHg 88%
    05:00 +4°C° 0 mm 0 mps 753 mmHg 90%
    06:00 +4°C° 0 mm 0 mps 753 mmHg 91%
    07:00 +6°C° 0 mm 0 mps 753 mmHg 80%
    08:00 +8°C° 0 mm 0 mps 753 mmHg 69%
    09:00 +11°C° 0 mm 1 mps 753 mmHg 59%
    10:00 +13°C° 0 mm 1 mps 752 mmHg 51%
    11:00 +14°C° 0 mm 2 mps 752 mmHg 43%
    12:00 +16°C° 0 mm 2 mps 752 mmHg 35%
    13:00 +16°C° 0 mm 2 mps 751 mmHg 33%
    14:00 +17°C° 0 mm 3 mps 750 mmHg 30%
    15:00 +17°C° 0 mm 3 mps 750 mmHg 28%
    16:00 +16°C° 0 mm 3 mps 749 mmHg 30%
    17:00 +16°C° 0 mm 3 mps 749 mmHg 32%
    18:00 +14°C° 0 mm 3 mps 749 mmHg 34%
    19:00 +13°C° 0 mm 2 mps 749 mmHg 39%
    20:00 +10°C° 0 mm 2 mps 749 mmHg 43%
    21:00 +9°C° 0 mm 2 mps 749 mmHg 47%
    22:00 +9°C° 0 mm 1 mps 749 mmHg 49%
    23:00 +8°C° 0 mm 1 mps 748 mmHg 51%

    12 April, Sunday

    Time Temperature Precipitation Wind Pressure Humidity
    00:00 +7°C° 0 mm 1 mps 748 mmHg 54%
    01:00 +6°C° 0 mm 0 mps 748 mmHg 56%
    02:00 +5°C° 0 mm 0 mps 748 mmHg 57%
    03:00 +5°C° 0 mm 0 mps 747 mmHg 59%
    04:00 +4°C° 0 mm 0 mps 747 mmHg 61%
    05:00 +5°C° 0 mm 1 mps 748 mmHg 62%
    06:00 +5°C° 0 mm 1 mps 748 mmHg 64%
    07:00 +6°C° 0 mm 2 mps 748 mmHg 62%
    08:00 +9°C° 0 mm 3 mps 748 mmHg 61%
    09:00 +11°C° 0 mm 4 mps 748 mmHg 59%
    10:00 +10°C° 0.1 mm 5 mps 748 mmHg 58%
    11:00 +12°C° 0.1 mm 5 mps 748 mmHg 56%
    12:00 +11°C° 0.1 mm 6 mps 748 mmHg 54%
    13:00 +11°C° 0 mm 6 mps 748 mmHg 52%
    14:00 +11°C° 0 mm 6 mps 748 mmHg 50%
    15:00 +11°C° 0 mm 6 mps 748 mmHg 48%
    16:00 +10°C° 0 mm 6 mps 748 mmHg 51%
    17:00 +9°C° 0 mm 6 mps 748 mmHg 54%
    18:00 +7°C° 0 mm 6 mps 748 mmHg 58%
    19:00 +6°C° 0 mm 5 mps 748 mmHg 62%
    20:00 +5°C° 0 mm 4 mps 749 mmHg 67%
    21:00 +4°C° 0 mm 3 mps 749 mmHg 72%
    22:00 +4°C° 0 mm 3 mps 749 mmHg 72%
    23:00 +3°C° 0 mm 3 mps 749 mmHg 73%

    13 April, Monday

    Time Temperature Precipitation Wind Pressure Humidity
    00:00 +3°C° 0 mm 3 mps 749 mmHg 73%
    01:00 +3°C° 0 mm 2 mps 748 mmHg 74%
    02:00 +3°C° 0 mm 2 mps 748 mmHg 74%
    03:00 +3°C° 0 mm 1 mps 747 mmHg 75%
    04:00 +3°C° 0 mm 1 mps 747 mmHg 76%
    05:00 +2°C° 0 mm 1 mps 747 mmHg 78%
    06:00 +2°C° 0 mm 1 mps 747 mmHg 79%
    07:00 +3°C° 0 mm 2 mps 747 mmHg 68%
    08:00 +5°C° 0 mm 2 mps 747 mmHg 58%
    09:00 +8°C° 0 mm 3 mps 747 mmHg 47%
    10:00 +9°C° 0 mm 3 mps 747 mmHg 41%
    11:00 +11°C° 0 mm 3 mps 747 mmHg 35%
    12:00 +13°C° 0 mm 3 mps 747 mmHg 29%
    13:00 +14°C° 0 mm 3 mps 746 mmHg 27%
    14:00 +14°C° 0 mm 3 mps 746 mmHg 25%
    15:00 +16°C° 0 mm 3 mps 745 mmHg 23%
    16:00 +14°C° 0 mm 3 mps 745 mmHg 25%
    17:00 +14°C° 0 mm 3 mps 745 mmHg 26%
    18:00 +14°C° 0 mm 2 mps 746 mmHg 28%
    19:00 +12°C° 0 mm 2 mps 746 mmHg 35%
    20:00 +10°C° 0 mm 1 mps 746 mmHg 41%
    21:00 +7°C° 0 mm 1 mps 747 mmHg 47%
    22:00 +7°C° 0 mm 1 mps 747 mmHg 50%
    23:00 +5°C° 0 mm 0 mps 747 mmHg 52%

    14 April, Tuesday

    Time Temperature Precipitation Wind Pressure Humidity
    00:00 +5°C° 0 mm 0 mps 747 mmHg 54%
    01:00 +4°C° 0 mm 0 mps 747 mmHg 54%
    02:00 +4°C° 0 mm 0 mps 747 mmHg 55%
    03:00 +4°C° 0 mm 0 mps 747 mmHg 56%
    04:00 +4°C° 0 mm 0 mps 747 mmHg 58%
    05:00 +3°C° 0 mm 0 mps 747 mmHg 59%
    06:00 +3°C° 0 mm 0 mps 747 mmHg 61%
    07:00 +6°C° 0 mm 0 mps 748 mmHg 54%
    08:00 +10°C° 0 mm 1 mps 748 mmHg 47%
    09:00 +13°C° 0 mm 1 mps 748 mmHg 41%
    10:00 +16°C° 0 mm 2 mps 748 mmHg 36%
    11:00 +18°C° 0 mm 2 mps 748 mmHg 31%
    12:00 +20°C° 0 mm 3 mps 747 mmHg 26%
    13:00 +21°C° 0 mm 4 mps 747 mmHg 24%
    14:00 +22°C° 0 mm 4 mps 747 mmHg 22%
    15:00 +22°C° 0 mm 5 mps 746 mmHg 21%
    16:00 +21°C° 0 mm 4 mps 746 mmHg 24%
    17:00 +21°C° 0 mm 4 mps 746 mmHg 27%
    18:00 +20°C° 0 mm 4 mps 746 mmHg 30%
    19:00 +17°C° 0 mm 3 mps 746 mmHg 34%
    20:00 +14°C° 0 mm 3 mps 746 mmHg 39%
    21:00 +13°C° 0 mm 2 mps 747 mmHg 44%
    22:00 +12°C° 0 mm 2 mps 747 mmHg 49%
    23:00 +10°C° 0 mm 2 mps 747 mmHg 53%
    Show more